Weather History for KBGR - February, 2014

Change the Weather History Date:

Monday, February 24, 2014

  Actual Average Record
Temperature  
Mean Temperature 24 °F 23 °F  
Max Temperature 32 °F 34 °F 53 °F (1930)
Min Temperature 15 °F 13 °F -26 °F (1929)
Degree Days  
Heating Degree Days 41 42  
Month to date heating degree days 1097 1075  
Since 1 July heating degree days 5539 5482  
Cooling Degree Days 0 0  
Month to date cooling degree days 0 0  
Year to date cooling degree days 0 0  
Moisture  
Dew Point 8 °F    
Average Humidity 55    
Maximum Humidity 78    
Minimum Humidity 31    
Precipitation  
Precipitation 0.00 in 0.09 in 0.85 in (1979)
Month to date precipitation 1.99 2.13  
Year to date precipitation 5.17 5.02  
Snow  
Snow 0.00 in 0.50 in 10.00 in (1962)
Month to date snowfall 25.1 12.8  
Since 1 July snowfall 63.1 48.8  
Snow Depth 7.00 in    
Sea Level Pressure  
Sea Level Pressure 29.71 in    
Wind  
Wind Speed 7 mph (NW)    
Max Wind Speed 22 mph    
Max Gust Speed 32 mph    
Visibility 10 miles    
Events      
T = Trace of Precipitation, MM = Missing Value Source: NWS Daily Summary

Daily Weather History Graph

Daily Weather History Graph

Search for Another Location

Airport or City:

Trip Planner

Search our weather history database for the weather conditions in past years. The results will help you decide how hot, cold, wet, or windy it might be!

Date:

Astronomy

Feb. 24, 2014 Rise Set
Actual Time 6:21 AM EST 5:16 PM EST
Civil Twilight 5:51 AM EST 5:45 PM EST
Nautical Twilight 5:18 AM EST 6:19 PM EST
Astronomical Twilight 4:44 AM EST 6:53 PM EST
Moon 2:24 AM EST (2/24) 12:05 PM EST (2/24)
Length of Visible Light 11h 53m
Length of Day
10h 54m
Waning Crescent, 28% of the Moon is Illuminated
Feb 24
Waning Crescent
Mar 1
New
Mar 8
First Quarter
Mar 16
Full
Mar 23
Last Quarter

Hourly Weather History & Observations

Time (EST) Temp. Windchill Dew Point Humidity Pressure Visibility Wind Dir Wind Speed Gust Speed Precip Events Conditions
12:53 AM 30.0 °F - 24.1 °F 79% 29.72 in 10.0 mi Calm Calm - N/A   Mostly Cloudy
1:53 AM 28.9 °F - 23.0 °F 78% 29.71 in 10.0 mi Calm Calm - N/A   Mostly Cloudy
2:53 AM 28.0 °F 24.2 °F 21.9 °F 78% 29.70 in 10.0 mi North 3.5 mph - N/A   Mostly Cloudy
3:53 AM 28.0 °F 18.6 °F 15.1 °F 58% 29.71 in 10.0 mi NNW 10.4 mph - N/A   Mostly Cloudy
4:53 AM 28.0 °F 18.1 °F 14.0 °F 56% 29.72 in 10.0 mi North 11.5 mph - N/A   Mostly Cloudy
5:53 AM 27.0 °F 21.6 °F 14.0 °F 58% 29.72 in 10.0 mi North 4.6 mph - N/A   Mostly Cloudy
6:53 AM 27.0 °F 21.6 °F 10.9 °F 51% 29.73 in 10.0 mi WNW 4.6 mph - N/A   Mostly Cloudy
7:53 AM 28.0 °F 22.8 °F 10.9 °F 49% 29.73 in 10.0 mi NW 4.6 mph - N/A   Partly Cloudy
8:53 AM 28.9 °F 21.9 °F 10.9 °F 47% 29.71 in 10.0 mi NNW 6.9 mph - N/A   Partly Cloudy
9:53 AM 30.0 °F 20.5 °F 10.0 °F 43% 29.70 in 10.0 mi WNW 11.5 mph 19.6 mph N/A   Scattered Clouds
10:53 AM 30.0 °F 20.0 °F 5.0 °F 35% 29.68 in 10.0 mi West 12.7 mph 21.9 mph N/A   Scattered Clouds
11:53 AM 30.0 °F 20.5 °F 5.0 °F 35% 29.66 in 10.0 mi WNW 11.5 mph 23.0 mph N/A   Partly Cloudy
12:53 PM 30.0 °F 20.0 °F 5.0 °F 35% 29.64 in 10.0 mi NW 12.7 mph 25.3 mph N/A   Mostly Cloudy
1:53 PM 30.0 °F 20.5 °F 3.0 °F 32% 29.63 in 10.0 mi West 11.5 mph 24.2 mph N/A   Mostly Cloudy
2:53 PM 30.0 °F 19.5 °F 3.0 °F 32% 29.64 in 10.0 mi West 13.8 mph 18.4 mph N/A   Mostly Cloudy
3:53 PM 28.9 °F 19.2 °F 3.9 °F 35% 29.64 in 10.0 mi WNW 11.5 mph 24.2 mph N/A   Mostly Cloudy
4:53 PM 27.0 °F 18.0 °F 6.1 °F 41% 29.66 in 10.0 mi WNW 9.2 mph - N/A   Mostly Cloudy
5:53 PM 24.1 °F 13.7 °F 7.0 °F 48% 29.70 in 10.0 mi WNW 10.4 mph 17.3 mph N/A   Mostly Cloudy
6:53 PM 21.9 °F 9.8 °F 3.9 °F 46% 29.74 in 10.0 mi NW 12.7 mph 21.9 mph N/A   Mostly Cloudy
7:53 PM 19.9 °F 10.1 °F 1.9 °F 46% 29.76 in 10.0 mi WNW 8.1 mph - N/A   Partly Cloudy
8:53 PM 18.0 °F 6.1 °F 1.9 °F 50% 29.79 in 10.0 mi WNW 10.4 mph 20.7 mph N/A   Partly Cloudy
9:53 PM 17.1 °F 5.0 °F -0.0 °F 47% 29.81 in 10.0 mi West 10.4 mph - N/A   Clear
10:53 PM 16.0 °F 5.3 °F -0.9 °F 47% 29.81 in 10.0 mi West 8.1 mph - N/A   Clear
11:53 PM 15.1 °F 2.5 °F -0.9 °F 49% 29.81 in 10.0 mi West 10.4 mph - N/A   Partly Cloudy